STARLINK-11502, 62474

Orbit data source: Space-Track

STARLINK-11502, 62474 is a payload satellite owned by SpaceX/Seattle (US) in LEO that was launched on Tue, 31 Dec 2024 UTC via an FALCON 9 launch vehicle from the Air Force Eastern Test Range (AFETR). Payload-class satellites include a variety of spacecraft equipped with specific instruments for various scientific and technological missions. These include communications satellites like Starlink; space stations such as the ISS; scientific satellites like the Hubble; Earth observation satellites from companies like Planet Labs, Umbra, and HawkEye 360; GPS; miniature CubeSats for education and research; and military/defense satellites.

Loading next visibility...
Identifier
62474, 2024-254N
Orbit
LEO
Country
Flag of USUS
Related business
Manufacturer
SpaceX/Seattle
Mission
Operational Commercial Communications
Bus & Motor
STARLINK V2MD, Unknown motor
Mass
960 kg wet, ~910 kg dry
Launch date (UTC)
2024-12-31 (1 year ago)
Launch vehicle
FALCON 9
Launch site
Air Force Eastern Test Range (AFETR)
Object type
Payload
Rocket body
Debris
Shape & HBR
Box + 2 Pan, 18.1 m
Radar Cross Section
36.964 m², Large (>1 m²)

Expand to show TLE details & history
Last TLE update: 1 day ago

TLE from 1 day ago
0 STARLINK-11502
1 62474U 24254N   26120.45761506  .00278254  00000-0  20849-2 0  9998
2 62474  42.9992 270.8766 0001457 230.1032 129.9708 15.71014066 77544
Epoch: 2026-04-30T10:58Z
TLE epoch observation values (Epoch: 2026-04-30T10:58:57.941Z)
Latitude
0.00001°
Longitude
-112.26875°
Altitude
356.399 km
Speed
7.697 km/s
True Right ascension
18h 03m 30s
True Declination
0° 00' 00"
Sunlit
Object was in full shadow at epoch
Visualization orbit readout
Latitude
Unknown
Longitude
Unknown
Altitude
Unknown
Speed
Unknown
Apparent Right ascension
Unknown
Apparent Declination
Unknown
Sunlit
N/A
Visualization observer readout
Local Sidereal Time
18:59:26
Azimuth
Unknown
Elevation
Unknown
Doppler factor
Unknown
Orbital elements
Apogee altitude
358.961 km
Perigee altitude
356.998 km
Semi-major axis
6,736.116 km
Eccentricity
0.00015
Inclination
42.9992°
RAAN
270.8766°
Arg. of periapsis
230.1032°
True anomaly
129.98359°
Mean anomaly
129.9708°
Eccentric anomaly
129.9772°
Mean motion
3.92581 °/min
Orbital period
91.7 mins
BSTAR
0.0020849
Loading maneuver chart data...
Computing Atmospheric mass density...
Loading historical data...
Loading historical data...
Loading historical data...
Loading historical data...
Loading historical data...
Loading historical data...
Loading historical data...

Documentation

Showing up to 5 results
|